Location: Le Petit-Vavre
(46.5081°N, 1.5239°E)
Time: 16:09:34
(UTC+00:00)

SL-4 R/B - Pass Details

Date: 03 March 2021
Orbit: 428 x 663 km, 51.6° (Epoch: 18 April)

Event Time Altitude Azimuth Distance (km) Brightness Sun altitude
Rises 18:09:45 0° 285° (WNW) 2,527 7.1 -5.4°
Reaches altitude 10° 18:12:06 10° 295° (WNW) 1,613 5.6 -5.8°
Maximum altitude 18:15:26 34° 2° (N) 751 2.7 -6.4°
Drops below altitude 10° 18:18:37 10° 70° (ENE) 1,543 3.7 -6.9°
Enters shadow 18:18:57 - 72° (ENE) 1,663 3.9 -7.0°
